Regional Weather Roundup
Issued by NWS

Home | Current Version | Previous Version | Graphics & Text | Print | Product List | Glossary On
Versions: 1 2 3 4 5 6 7 8 9 10 11 12 13 14 15 16 17 18 19 20 21 22 23 24 25 26 27 28 29 30 31 32 33 34 35 36 37 38 39 40 41 42 43 44 45 46 47 48 49 50
000
ASUS43 KFSD 281802
RWRSD

WEATHER ROUNDUP FOR SOUTH DAKOTA
NATIONAL WEATHER SERVICE SIOUX FALLS SD
100 PM CDT TUE JUL 28 2015

NOTE: "FAIR" INDICATES FEW OR NO CLOUDS BELOW 12,000 FEET WITH NO
SIGNIFICANT WEATHER AND/OR OBSTRUCTIONS TO VISIBILITY.


SDZ001>005-009-010-012>017-281900-
NORTHWEST AND NORTH CENTRAL SOUTH DAKOTA

CITY           SKY/WX    TMP DP  RH WIND       PRES   REMARKS
BUFFALO          N/A     66  43  43 W43G61    29.88R
FAITH            N/A     73  41  31 W29G48    29.93R
MOBRIDGE       MOSUNNY   74  51  44 W22G35    29.82S
$$

SDZ012>016-024>037-041>051-057-063-072>074-281900-
SOUTHWEST AND SOUTH CENTRAL SOUTH DAKOTA

CITY           SKY/WX    TMP DP  RH WIND       PRES   REMARKS
RAPID CTY ARPT SUNNY     74  42  31 W16       30.02S
PIERRE         SUNNY     77  47  34 W26G37    29.90S
CUSTER         SUNNY     63  39  41 W18G26    30.12S
PHILIP         SUNNY     77  44  30 NW24G36   29.96S
PINE RIDGE     SUNNY     72  41  32 W17G28    30.07R
WINNER         FAIR      77  48  35 NW21      29.98R
$$

SDZ004>011-016>023-039-040-281900-
NORTHEAST SOUTH DAKOTA

CITY           SKY/WX    TMP DP  RH WIND       PRES   REMARKS
ABERDEEN       SUNNY     74  54  49 SW20G29   29.82F
WATERTOWN      SUNNY     74  60  61 W16       29.85R
BROOKINGS      PTSUNNY   72  64  78 W15       29.88S
SISSETON         N/A     76  60  57 W24G33    29.76F
$$

SDZ017-020-022-023-036>040-048>070-281900-
SOUTHEAST SOUTH DAKOTA

CITY           SKY/WX    TMP DP  RH WIND       PRES   REMARKS
SIOUX FALLS    PTSUNNY   76  68  76 W14       29.87R
HURON          SUNNY     74  57  55 W16G26    29.88F
MITCHELL       SUNNY     76  59  55 W13       29.90S
YANKTON        MOSUNNY  N/A N/A N/A MISG        N/A
$$

ABBREVIATIONS USED IN REMARKS
   TC - TEMPERATURE IN CELSIUS
  WCI - WIND CHILL INDEX
   HX - HEAT INDEX
  VSB - VISIBILITY




USA.gov is the U.S. government's official web portal to all federal, state and local government web resources and services.